Time,TemperatureF,DewpointF,PressureIn,WindDirection,WindDirectionDegrees,WindSpeedMPH,WindSpeedGustMPH,Humidity,HourlyPrecipIn,Conditions,Clouds,dailyrainin,SoftwareType,DateUTC
2013-02-25 00:01:00,29.0,29.0,29.82,North,356,0.0,-999.0,99,-99.99,,,-99.99,,2013-02-25 05:01:00,
2013-02-25 00:11:00,29.0,29.0,29.82,North,356,0.0,-999.0,99,-99.99,,,-99.99,,2013-02-25 05:11:00,
2013-02-25 00:22:00,29.0,29.0,29.82,North,1,0.0,-999.0,99,-99.99,,,-99.99,,2013-02-25 05:22:00,
2013-02-25 00:32:00,29.0,29.0,29.85,North,360,0.0,-999.0,99,-99.99,,,-99.99,,2013-02-25 05:32:00,
2013-02-25 00:42:00,29.0,29.0,29.85,North,360,0.0,-999.0,99,-99.99,,,-99.99,,2013-02-25 05:42:00,
2013-02-25 00:52:00,29.0,29.0,29.86,NW,320,0.0,-999.0,99,-99.99,,,-99.99,,2013-02-25 05:52:00,
2013-02-25 01:02:00,29.0,29.0,29.87,NW,313,0.0,-999.0,99,-99.99,,,-99.99,,2013-02-25 06:02:00,
2013-02-25 01:11:00,29.0,29.0,29.87,NW,313,0.0,-999.0,99,-99.99,,,-99.99,,2013-02-25 06:11:00,
2013-02-25 01:21:00,29.0,29.0,29.87,WNW,302,0.0,-999.0,99,-99.99,,,-99.99,,2013-02-25 06:21:00,
2013-02-25 01:32:00,29.0,29.0,29.85,North,353,0.0,-999.0,99,-99.99,,,-99.99,,2013-02-25 06:32:00,
2013-02-25 01:42:00,29.0,29.0,29.85,North,353,0.0,-999.0,99,-99.99,,,-99.99,,2013-02-25 06:42:00,
2013-02-25 01:52:00,29.0,29.0,29.85,North,359,0.0,-999.0,99,-99.99,,,-99.99,,2013-02-25 06:52:00,
2013-02-25 02:01:00,29.0,29.0,29.85,NW,325,0.0,-999.0,99,-99.99,,,-99.99,,2013-02-25 07:01:00,
2013-02-25 02:11:00,29.0,29.0,29.86,NW,306,0.0,-999.0,99,-99.99,,,-99.99,,2013-02-25 07:11:00,
2013-02-25 02:21:00,29.0,29.0,29.86,NW,306,0.0,-999.0,99,-99.99,,,-99.99,,2013-02-25 07:21:00,
2013-02-25 02:32:00,28.0,28.0,29.86,NNW,346,0.0,-999.0,99,-99.99,,,-99.99,,2013-02-25 07:32:00,
2013-02-25 02:42:00,28.0,28.0,29.86,NNW,346,0.0,-999.0,99,-99.99,,,-99.99,,2013-02-25 07:42:00,
2013-02-25 02:52:00,28.0,28.0,29.86,NNW,336,0.0,-999.0,99,-99.99,,,-99.99,,2013-02-25 07:52:00,
2013-02-25 03:01:00,28.0,28.0,29.86,NNW,328,0.0,-999.0,99,-99.99,,,-99.99,,2013-02-25 08:01:00,
2013-02-25 03:11:00,28.0,28.0,29.87,North,350,0.0,-999.0,99,-99.99,,,-99.99,,2013-02-25 08:11:00,
2013-02-25 03:21:00,28.0,28.0,29.87,North,350,0.0,-999.0,99,-99.99,,,-99.99,,2013-02-25 08:21:00,
2013-02-25 03:32:00,28.0,28.0,29.86,North,350,0.0,-999.0,98,-99.99,,,-99.99,,2013-02-25 08:32:00,
2013-02-25 03:42:00,28.0,28.0,29.86,North,350,0.0,-999.0,98,-99.99,,,-99.99,,2013-02-25 08:42:00,
2013-02-25 03:52:00,28.0,27.0,29.87,NW,304,0.0,-999.0,97,-99.99,,,-99.99,,2013-02-25 08:52:00,
2013-02-25 04:01:00,28.0,27.0,29.87,North,357,0.0,-999.0,97,-99.99,,,-99.99,,2013-02-25 09:01:00,
2013-02-25 04:12:00,28.0,27.0,29.87,North,357,0.0,-999.0,97,-99.99,,,-99.99,,2013-02-25 09:12:00,
2013-02-25 04:21:00,28.0,27.0,29.87,North,360,0.0,-999.0,97,-99.99,,,-99.99,,2013-02-25 09:21:00,
2013-02-25 04:32:00,27.0,26.0,29.87,North,352,0.0,-999.0,97,-99.99,,,-99.99,,2013-02-25 09:32:00,
2013-02-25 04:42:00,27.0,26.0,29.87,North,352,0.0,-999.0,97,-99.99,,,-99.99,,2013-02-25 09:42:00,
2013-02-25 04:52:00,27.0,26.0,29.88,NNW,340,0.0,-999.0,97,-99.99,,,-99.99,,2013-02-25 09:52:00,
2013-02-25 05:01:00,27.0,26.0,29.89,NNW,347,0.0,-999.0,97,-99.99,,,-99.99,,2013-02-25 10:01:00,
2013-02-25 05:11:00,27.0,26.0,29.89,North,360,0.0,-999.0,97,-99.99,,,-99.99,,2013-02-25 10:11:00,
2013-02-25 05:21:00,27.0,26.0,29.89,North,360,0.0,-999.0,97,-99.99,,,-99.99,,2013-02-25 10:21:00,
2013-02-25 05:32:00,27.0,27.0,29.89,North,360,0.0,-999.0,98,-99.99,,,-99.99,,2013-02-25 10:32:00,
2013-02-25 05:42:00,27.0,27.0,29.89,North,360,0.0,-999.0,98,-99.99,,,-99.99,,2013-02-25 10:42:00,
2013-02-25 05:52:00,26.0,26.0,29.90,North,360,0.0,-999.0,98,-99.99,,,-99.99,,2013-02-25 10:52:00,
2013-02-25 06:01:00,26.0,26.0,29.91,North,360,0.0,-999.0,98,-99.99,,,-99.99,,2013-02-25 11:01:00,
2013-02-25 06:11:00,26.0,26.0,29.91,North,360,0.0,-999.0,98,-99.99,,,-99.99,,2013-02-25 11:11:00,
2013-02-25 06:22:00,26.0,26.0,29.91,North,360,0.0,-999.0,98,-99.99,,,-99.99,,2013-02-25 11:22:00,
2013-02-25 06:32:00,26.0,26.0,29.92,NNW,337,0.0,-999.0,98,-99.99,,,-99.99,,2013-02-25 11:32:00,
2013-02-25 06:42:00,26.0,26.0,29.92,NNW,337,0.0,-999.0,98,-99.99,,,-99.99,,2013-02-25 11:42:00,
2013-02-25 06:52:00,26.0,26.0,29.94,NNW,337,0.0,-999.0,98,-99.99,,,-99.99,,2013-02-25 11:52:00,
2013-02-25 07:02:00,26.0,26.0,29.94,NNW,337,0.0,-999.0,98,-99.99,,,-99.99,,2013-02-25 12:02:00,
2013-02-25 07:11:00,26.0,26.0,29.94,NNW,337,0.0,-999.0,98,-99.99,,,-99.99,,2013-02-25 12:11:00,
2013-02-25 07:22:00,26.0,26.0,29.94,NNW,337,0.0,-999.0,98,-99.99,,,-99.99,,2013-02-25 12:22:00,
2013-02-25 07:32:00,26.0,26.0,29.95,NNW,337,0.0,-999.0,98,-99.99,,,-99.99,,2013-02-25 12:32:00,
2013-02-25 07:42:00,26.0,26.0,29.95,NNW,337,0.0,-999.0,98,-99.99,,,-99.99,,2013-02-25 12:42:00,
2013-02-25 07:56:00,26.0,25.0,29.96,NNW,337,0.0,-999.0,97,-99.99,,,-99.99,,2013-02-25 12:56:00,
2013-02-25 08:02:00,27.0,26.0,29.97,NNW,337,0.0,-999.0,97,-99.99,,,-99.99,,2013-02-25 13:02:00,
2013-02-25 08:12:00,27.0,26.0,29.97,NNW,337,0.0,-999.0,97,-99.99,,,-99.99,,2013-02-25 13:12:00,
2013-02-25 08:23:00,27.0,26.0,29.98,NNW,337,0.0,-999.0,97,-99.99,,,-99.99,,2013-02-25 13:23:00,
2013-02-25 08:32:00,28.0,27.0,29.98,North,360,0.0,-999.0,97,-99.99,,,-99.99,,2013-02-25 13:32:00,
2013-02-25 08:42:00,28.0,27.0,29.98,North,360,0.0,-999.0,97,-99.99,,,-99.99,,2013-02-25 13:42:00,
2013-02-25 08:52:00,29.0,28.0,29.98,North,354,0.0,-999.0,97,-99.99,,,-99.99,,2013-02-25 13:52:00,
2013-02-25 09:03:00,29.0,28.0,29.99,NNW,332,0.0,-999.0,97,-99.99,,,-99.99,,2013-02-25 14:03:00,
2013-02-25 09:17:00,29.0,28.0,29.99,NNW,332,0.0,-999.0,97,-99.99,,,-99.99,,2013-02-25 14:17:00,
2013-02-25 09:32:00,30.0,29.0,30.00,North,359,0.0,-999.0,96,-99.99,,,-99.99,,2013-02-25 14:32:00,
2013-02-25 09:42:00,30.0,29.0,30.00,North,359,0.0,-999.0,96,-99.99,,,-99.99,,2013-02-25 14:42:00,
2013-02-25 09:52:00,31.0,30.0,30.01,NNW,346,0.0,-999.0,96,-99.99,,,-99.99,,2013-02-25 14:52:00,
2013-02-25 10:03:00,31.0,30.0,30.01,North,360,0.0,-999.0,96,-99.99,,,-99.99,,2013-02-25 15:03:00,
2013-02-25 10:11:00,31.0,30.0,30.01,North,360,0.0,-999.0,96,-99.99,,,-99.99,,2013-02-25 15:11:00,
2013-02-25 10:22:00,31.0,30.0,30.02,North,360,0.0,-999.0,95,-99.99,,,-99.99,,2013-02-25 15:22:00,
2013-02-25 10:32:00,32.0,31.0,30.02,North,360,0.0,-999.0,95,-99.99,,,-99.99,,2013-02-25 15:32:00,
2013-02-25 10:42:00,32.0,31.0,30.02,North,360,0.0,-999.0,95,-99.99,,,-99.99,,2013-02-25 15:42:00,
2013-02-25 10:52:00,32.0,30.0,30.02,North,1,0.0,-999.0,93,-99.99,,,-99.99,,2013-02-25 15:52:00,
2013-02-25 11:02:00,32.0,30.0,30.01,North,349,0.0,-999.0,93,-99.99,,,-99.99,,2013-02-25 16:02:00,
2013-02-25 11:12:00,32.0,30.0,30.01,North,349,0.0,-999.0,93,-99.99,,,-99.99,,2013-02-25 16:12:00,
2013-02-25 11:22:00,32.0,30.0,30.02,North,360,0.0,-999.0,92,-99.99,,,-99.99,,2013-02-25 16:22:00,
2013-02-25 11:32:00,32.0,30.0,30.03,North,360,0.0,-999.0,93,-99.99,,,-99.99,,2013-02-25 16:32:00,
2013-02-25 11:42:00,32.0,30.0,30.03,North,360,0.0,-999.0,93,-99.99,,,-99.99,,2013-02-25 16:42:00,
2013-02-25 11:52:00,33.0,31.0,30.03,North,357,0.0,-999.0,93,-99.99,,,-99.99,,2013-02-25 16:52:00,
2013-02-25 12:01:00,33.0,31.0,30.02,NNW,344,0.0,-999.0,92,-99.99,,,-99.99,,2013-02-25 17:01:00,
2013-02-25 12:11:00,33.0,31.0,30.02,NNW,344,0.0,-999.0,92,-99.99,,,-99.99,,2013-02-25 17:11:00,
2013-02-25 12:21:00,33.0,31.0,30.03,NW,320,0.0,-999.0,92,-99.99,,,-99.99,,2013-02-25 17:21:00,
2013-02-25 12:32:00,33.0,31.0,30.03,NW,318,0.0,-999.0,92,-99.99,,,-99.99,,2013-02-25 17:32:00,
2013-02-25 12:42:00,33.0,31.0,30.03,NW,318,0.0,-999.0,92,-99.99,,,-99.99,,2013-02-25 17:42:00,
2013-02-25 12:52:00,33.0,31.0,30.03,NNW,337,0.0,-999.0,92,-99.99,,,-99.99,,2013-02-25 17:52:00,
2013-02-25 13:01:00,33.0,31.0,30.04,NW,312,0.0,-999.0,92,-99.99,,,-99.99,,2013-02-25 18:01:00,
2013-02-25 13:12:00,33.0,31.0,30.04,NW,312,0.0,-999.0,92,-99.99,,,-99.99,,2013-02-25 18:12:00,
2013-02-25 13:21:00,34.0,32.0,30.04,NW,319,0.0,-999.0,93,-99.99,,,-99.99,,2013-02-25 18:21:00,
2013-02-25 13:32:00,34.0,32.0,30.04,NW,319,0.0,-999.0,92,-99.99,,,-99.99,,2013-02-25 18:32:00,
2013-02-25 13:42:00,34.0,32.0,30.04,NW,319,0.0,-999.0,92,-99.99,,,-99.99,,2013-02-25 18:42:00,
2013-02-25 13:52:00,34.0,32.0,30.05,NW,319,0.0,-999.0,91,-99.99,,,-99.99,,2013-02-25 18:52:00,
2013-02-25 14:01:00,34.0,32.0,30.06,NW,319,0.0,-999.0,91,-99.99,,,-99.99,,2013-02-25 19:01:00,
2013-02-25 14:11:00,34.0,32.0,30.06,NW,319,0.0,-999.0,91,-99.99,,,-99.99,,2013-02-25 19:11:00,
2013-02-25 14:21:00,34.0,31.0,30.06,NW,319,0.0,-999.0,90,-99.99,,,-99.99,,2013-02-25 19:21:00,
2013-02-25 14:32:00,34.0,32.0,30.06,NW,319,0.0,-999.0,92,-99.99,,,-99.99,,2013-02-25 19:32:00,
2013-02-25 14:42:00,34.0,32.0,30.06,NW,319,0.0,-999.0,92,-99.99,,,-99.99,,2013-02-25 19:42:00,
2013-02-25 14:52:00,34.0,32.0,30.06,NW,319,0.0,-999.0,94,-99.99,,,-99.99,,2013-02-25 19:52:00,
2013-02-25 15:01:00,34.0,32.0,30.06,NW,319,0.0,-999.0,94,-99.99,,,-99.99,,2013-02-25 20:01:00,
2013-02-25 15:11:00,34.0,32.0,30.06,NW,319,0.0,-999.0,94,-99.99,,,-99.99,,2013-02-25 20:11:00,
2013-02-25 15:21:00,34.0,32.0,30.07,NW,319,0.0,-999.0,93,-99.99,,,-99.99,,2013-02-25 20:21:00,
2013-02-25 15:32:00,34.0,32.0,30.07,NW,319,0.0,-999.0,93,-99.99,,,-99.99,,2013-02-25 20:32:00,
2013-02-25 15:42:00,34.0,32.0,30.07,NW,319,0.0,-999.0,93,-99.99,,,-99.99,,2013-02-25 20:42:00,
2013-02-25 15:52:00,34.0,32.0,30.08,NW,319,0.0,-999.0,94,-99.99,,,-99.99,,2013-02-25 20:52:00,
2013-02-25 16:01:00,34.0,32.0,30.07,NW,319,0.0,-999.0,94,-99.99,,,-99.99,,2013-02-25 21:01:00,
2013-02-25 16:11:00,34.0,32.0,30.07,NW,319,0.0,-999.0,94,-99.99,,,-99.99,,2013-02-25 21:11:00,
2013-02-25 16:21:00,33.0,31.0,30.08,NW,319,0.0,-999.0,94,-99.99,,,-99.99,,2013-02-25 21:21:00,
2013-02-25 16:32:00,33.0,32.0,30.08,NW,319,0.0,-999.0,95,-99.99,,,-99.99,,2013-02-25 21:32:00,
2013-02-25 16:42:00,33.0,32.0,30.08,NW,319,0.0,-999.0,95,-99.99,,,-99.99,,2013-02-25 21:42:00,
2013-02-25 16:52:00,33.0,31.0,30.08,NW,319,0.0,-999.0,94,-99.99,,,-99.99,,2013-02-25 21:52:00,
2013-02-25 17:11:00,34.0,33.0,30.08,NW,319,0.0,-999.0,95,-99.99,,,-99.99,,2013-02-25 22:11:00,
2013-02-25 17:21:00,33.0,32.0,30.08,NW,319,0.0,-999.0,96,-99.99,,,-99.99,,2013-02-25 22:21:00,
2013-02-25 17:32:00,33.0,32.0,30.08,NW,319,0.0,-999.0,96,-99.99,,,-99.99,,2013-02-25 22:32:00,
2013-02-25 17:42:00,33.0,32.0,30.08,NW,319,0.0,-999.0,96,-99.99,,,-99.99,,2013-02-25 22:42:00,
2013-02-25 17:52:00,33.0,32.0,30.09,NW,319,0.0,-999.0,97,-99.99,,,-99.99,,2013-02-25 22:52:00,
2013-02-25 18:01:00,33.0,32.0,30.09,NW,319,0.0,-999.0,97,-99.99,,,-99.99,,2013-02-25 23:01:00,
2013-02-25 18:11:00,33.0,32.0,30.09,NW,319,0.0,-999.0,97,-99.99,,,-99.99,,2013-02-25 23:11:00,
2013-02-25 18:22:00,32.0,31.0,30.10,NW,319,0.0,-999.0,97,-99.99,,,-99.99,,2013-02-25 23:22:00,
2013-02-25 18:32:00,32.0,31.0,30.10,NW,319,0.0,-999.0,97,-99.99,,,-99.99,,2013-02-25 23:32:00,
2013-02-25 18:42:00,32.0,31.0,30.10,NW,319,0.0,-999.0,97,-99.99,,,-99.99,,2013-02-25 23:42:00,
2013-02-25 18:52:00,32.0,31.0,30.11,NW,319,0.0,-999.0,97,-99.99,,,-99.99,,2013-02-25 23:52:00,
2013-02-25 19:01:00,32.0,31.0,30.11,NW,319,0.0,-999.0,97,-99.99,,,-99.99,,2013-02-26 00:01:00,
2013-02-25 19:12:00,32.0,31.0,30.11,NW,319,0.0,-999.0,97,-99.99,,,-99.99,,2013-02-26 00:12:00,
2013-02-25 19:22:00,32.0,31.0,30.12,NW,319,0.0,-999.0,97,-99.99,,,-99.99,,2013-02-26 00:22:00,
2013-02-25 19:32:00,32.0,31.0,30.13,NW,319,0.0,-999.0,97,-99.99,,,-99.99,,2013-02-26 00:32:00,
2013-02-25 19:42:00,32.0,31.0,30.13,NW,319,0.0,-999.0,97,-99.99,,,-99.99,,2013-02-26 00:42:00,
2013-02-25 19:52:00,32.0,31.0,30.13,NW,319,0.0,-999.0,97,-99.99,,,-99.99,,2013-02-26 00:52:00,
2013-02-25 20:02:00,32.0,31.0,30.13,NW,319,0.0,-999.0,97,-99.99,,,-99.99,,2013-02-26 01:02:00,
2013-02-25 20:11:00,32.0,31.0,30.13,NW,319,0.0,-999.0,97,-99.99,,,-99.99,,2013-02-26 01:11:00,
2013-02-25 20:21:00,32.0,32.0,30.13,NW,319,0.0,-999.0,98,-99.99,,,-99.99,,2013-02-26 01:21:00,
2013-02-25 20:32:00,32.0,32.0,30.13,NW,319,0.0,-999.0,98,-99.99,,,-99.99,,2013-02-26 01:32:00,
2013-02-25 20:42:00,32.0,32.0,30.13,NW,319,0.0,-999.0,98,-99.99,,,-99.99,,2013-02-26 01:42:00,
2013-02-25 20:52:00,32.0,32.0,30.14,NW,319,0.0,-999.0,98,-99.99,,,-99.99,,2013-02-26 01:52:00,
2013-02-25 21:01:00,32.0,32.0,30.14,NW,319,0.0,-999.0,98,-99.99,,,-99.99,,2013-02-26 02:01:00,
2013-02-25 21:11:00,32.0,32.0,30.14,NW,319,0.0,-999.0,98,-99.99,,,-99.99,,2013-02-26 02:11:00,
2013-02-25 21:21:00,31.0,31.0,30.13,NW,319,0.0,-999.0,98,-99.99,,,-99.99,,2013-02-26 02:21:00,
2013-02-25 21:32:00,31.0,31.0,30.12,NW,319,0.0,-999.0,98,-99.99,,,-99.99,,2013-02-26 02:32:00,
2013-02-25 21:42:00,31.0,31.0,30.12,NW,319,0.0,-999.0,98,-99.99,,,-99.99,,2013-02-26 02:42:00,
2013-02-25 21:52:00,31.0,31.0,30.13,NW,319,0.0,-999.0,98,-99.99,,,-99.99,,2013-02-26 02:52:00,
2013-02-25 22:02:00,31.0,31.0,30.13,NW,319,0.0,-999.0,98,-99.99,,,-99.99,,2013-02-26 03:02:00,
2013-02-25 22:11:00,31.0,31.0,30.13,NW,319,0.0,-999.0,98,-99.99,,,-99.99,,2013-02-26 03:11:00,
2013-02-25 22:22:00,31.0,31.0,30.13,NW,319,0.0,-999.0,98,-99.99,,,-99.99,,2013-02-26 03:22:00,
2013-02-25 22:32:00,31.0,31.0,30.13,NW,319,0.0,-999.0,98,-99.99,,,-99.99,,2013-02-26 03:32:00,
2013-02-25 22:42:00,31.0,31.0,30.13,NW,319,0.0,-999.0,98,-99.99,,,-99.99,,2013-02-26 03:42:00,
2013-02-25 22:52:00,30.0,29.0,30.13,NW,319,0.0,-999.0,98,-99.99,,,-99.99,,2013-02-26 03:52:00,
2013-02-25 23:01:00,30.0,29.0,30.13,NW,319,0.0,-999.0,98,-99.99,,,-99.99,,2013-02-26 04:01:00,
2013-02-25 23:11:00,30.0,29.0,30.13,NW,319,0.0,-999.0,98,-99.99,,,-99.99,,2013-02-26 04:11:00,
2013-02-25 23:22:00,30.0,29.0,30.13,NW,319,0.0,-999.0,98,-99.99,,,-99.99,,2013-02-26 04:22:00,
2013-02-25 23:32:00,30.0,29.0,30.14,NW,319,0.0,-999.0,98,-99.99,,,-99.99,,2013-02-26 04:32:00,
2013-02-25 23:42:00,30.0,29.0,30.14,NW,319,0.0,-999.0,98,-99.99,,,-99.99,,2013-02-26 04:42:00,
2013-02-25 23:52:00,29.0,29.0,30.14,NW,319,0.0,-999.0,98,-99.99,,,-99.99,,2013-02-26 04:52:00,